| time (UTC) | temp F | wind direction | speed knots | gust knots | rain 1hr in | rain 24hr in | rain mn in | humidity % | barometer mb |
| 20260906041329 | 79 | 157 | 0.9 | 2.6 | 0.00 | 0.00 | 0.00 | 79 | 1012.5 |
| 20260906040838 | 79 | 157 | 0.0 | 0.0 | 0.00 | 0.00 | 0.00 | 79 | 1012.5 |
| 20260906040323 | 79 | 157 | 0.0 | 0.0 | 0.00 | 0.00 | 0.00 | 79 | 1012.5 |
| 20260906035836 | 79 | 157 | 0.0 | 0.0 | 0.00 | 0.00 | 0.00 | 79 | 1012.4 |
| 20260906035343 | 79 | 157 | 0.0 | 0.0 | 0.00 | 0.00 | 0.00 | 79 | 1012.3 |
| 20260906034903 | 79 | 157 | 0.0 | 0.0 | 0.00 | 0.00 | 0.00 | 79 | 1012.4 |
| 20260906034346 | 79 | 157 | 0.0 | 2.6 | 0.00 | 0.00 | 0.00 | 79 | 1012.4 |
| 20260906033820 | 79 | 157 | 0.9 | 2.6 | 0.00 | 0.00 | 0.00 | 78 | 1012.4 |
| 20260906033335 | 79 | 157 | 0.9 | 2.6 | 0.00 | 0.00 | 0.00 | 78 | 1012.4 |
| 20260906032838 | 79 | 155 | 0.9 | 4.3 | 0.00 | 0.00 | 0.00 | 78 | 1012.3 |
| 20260906032343 | 79 | 150 | 1.7 | 4.3 | 0.00 | 0.00 | 0.00 | 78 | 1012.4 |
| 20260906031847 | 79 | 122 | 2.6 | 6.1 | 0.00 | 0.00 | 0.00 | 78 | 1012.6 |
| 20260906031332 | 79 | 93 | 2.6 | 6.1 | 0.00 | 0.00 | 0.00 | 78 | 1012.7 |
| 20260906030837 | 79 | 107 | 1.7 | 6.1 | 0.00 | 0.00 | 0.00 | 78 | 1012.7 |
| 20260906030320 | 80 | 98 | 3.5 | 6.1 | 0.00 | 0.00 | 0.00 | 78 | 1012.7 |
| 20260906025833 | 80 | 109 | 2.6 | 5.2 | 0.00 | 0.00 | 0.00 | 77 | 1012.6 |
| 20260906025338 | 80 | 122 | 2.6 | 5.2 | 0.00 | 0.00 | 0.00 | 77 | 1012.7 |
| 20260906024843 | 80 | 113 | 1.7 | 3.5 | 0.00 | 0.00 | 0.00 | 77 | 1012.5 |
| 20260906024327 | 80 | 115 | 1.7 | 3.5 | 0.00 | 0.00 | 0.00 | 77 | 1012.5 |
| 20260906023832 | 80 | 116 | 2.6 | 5.2 | 0.00 | 0.00 | 0.00 | 77 | 1012.4 |
| 20260906023348 | 80 | 101 | 2.6 | 6.1 | 0.00 | 0.00 | 0.00 | 77 | 1012.3 |
| 20260906022831 | 80 | 96 | 2.6 | 6.1 | 0.00 | 0.00 | 0.00 | 77 | 1012.2 |
| 20260906022336 | 80 | 113 | 3.5 | 6.1 | 0.00 | 0.00 | 0.00 | 77 | 1012.1 |
| 20260906021822 | 80 | 123 | 2.6 | 5.2 | 0.00 | 0.00 | 0.00 | 76 | 1012.0 |
| 20260906021324 | 80 | 123 | 2.6 | 6.1 | 0.00 | 0.00 | 0.00 | 76 | 1011.9 |
| 20260906020828 | 80 | 108 | 4.3 | 6.1 | 0.00 | 0.00 | 0.00 | 76 | 1011.8 |
| 20260906020336 | 80 | 128 | 3.5 | 6.1 | 0.00 | 0.00 | 0.00 | 76 | 1011.7 |
| 20260906015824 | 80 | 90 | 2.6 | 7.0 | 0.00 | 0.00 | 0.00 | 76 | 1011.6 |
| 20260906015350 | 81 | 94 | 4.3 | 7.0 | 0.00 | 0.00 | 0.00 | 76 | 1011.7 |
| 20260906014841 | 81 | 78 | 2.6 | 6.1 | 0.00 | 0.00 | 0.00 | 76 | 1011.8 |
| 20260906014326 | 81 | 100 | 2.6 | 6.1 | 0.00 | 0.00 | 0.00 | 75 | 1011.6 |
| 20260906013830 | 81 | 98 | 2.6 | 6.1 | 0.00 | 0.00 | 0.00 | 75 | 1011.6 |
| 20260906013336 | 81 | 110 | 2.6 | 5.2 | 0.00 | 0.00 | 0.00 | 75 | 1011.5 |
| 20260906012822 | 81 | 84 | 1.7 | 4.3 | 0.00 | 0.00 | 0.00 | 75 | 1011.4 |
| 20260906012326 | 81 | 124 | 2.6 | 7.0 | 0.00 | 0.00 | 0.00 | 75 | 1011.3 |
| 20260906011829 | 81 | 97 | 3.5 | 7.8 | 0.00 | 0.00 | 0.00 | 75 | 1011.3 |
| 20260906011337 | 82 | 116 | 5.2 | 9.6 | 0.00 | 0.00 | 0.00 | 75 | 1011.2 |
| 20260906010850 | 82 | 111 | 4.3 | 9.6 | 0.00 | 0.00 | 0.00 | 75 | 1011.2 |
| 20260906010335 | 82 | 111 | 3.5 | 8.7 | 0.00 | 0.00 | 0.00 | 74 | 1011.3 |
| 20260906005845 | 82 | 109 | 4.3 | 8.7 | 0.00 | 0.00 | 0.00 | 74 | 1011.3 |
| 20260906005328 | 82 | 111 | 3.5 | 9.6 | 0.00 | 0.00 | 0.00 | 74 | 1011.5 |
| 20260906004835 | 83 | 60 | 6.1 | 8.7 | 0.00 | 0.00 | 0.00 | 74 | 1011.5 |
| 20260906004321 | 83 | 86 | 4.3 | 7.0 | 0.00 | 0.00 | 0.00 | 74 | 1011.6 |
| 20260906003826 | 83 | 120 | 3.5 | 7.0 | 0.00 | 0.00 | 0.00 | 74 | 1011.6 |
| 20260906003331 | 83 | 116 | 2.6 | 6.1 | 0.00 | 0.00 | 0.00 | 74 | 1011.6 |
| 20260906002907 | 83 | 129 | 2.6 | 8.7 | 0.00 | 0.00 | 0.00 | 74 | 1011.6 |
| 20260906002329 | 84 | 121 | 3.5 | 8.7 | 0.00 | 0.00 | 0.00 | 73 | 1011.6 |
| 20260906001835 | 84 | 110 | 4.3 | 7.8 | 0.00 | 0.00 | 0.00 | 73 | 1011.7 |
| 20260906001322 | 84 | 124 | 3.5 | 7.0 | 0.00 | 0.00 | 0.00 | 73 | 1011.8 |
| 20260906000828 | 84 | 105 | 3.5 | 6.1 | 0.00 | 0.00 | 0.00 | 73 | 1011.8 |
| 20260906000333 | 84 | 113 | 2.6 | 7.0 | 0.00 | 0.00 | 0.00 | 73 | 1011.8 |
| 20260905235819 | 84 | 80 | 2.6 | 7.0 | 0.00 | 0.00 | 0.00 | 72 | 1011.7 |
| 20260905235322 | 84 | 118 | 2.6 | 9.6 | 0.00 | 0.00 | 0.00 | 72 | 1011.7 |
| 20260905234829 | 84 | 83 | 4.3 | 8.7 | 0.00 | 0.00 | 0.00 | 72 | 1011.7 |
| 20260905234342 | 84 | 121 | 2.6 | 7.8 | 0.00 | 0.00 | 0.00 | 72 | 1011.7 |
| 20260905233845 | 84 | 81 | 4.3 | 8.7 | 0.00 | 0.00 | 0.00 | 72 | 1011.6 |
| 20260905233356 | 84 | 91 | 3.5 | 8.7 | 0.00 | 0.00 | 0.00 | 71 | 1011.6 |
| 20260905232843 | 84 | 74 | 4.3 | 8.7 | 0.00 | 0.00 | 0.00 | 71 | 1011.5 |
| 20260905232327 | 84 | 78 | 1.7 | 8.7 | 0.00 | 0.00 | 0.00 | 71 | 1011.4 |
| 20260905231835 | 84 | 90 | 5.2 | 10.4 | 0.00 | 0.00 | 0.00 | 70 | 1011.4 |
| 20260905231321 | 84 | 94 | 5.2 | 10.4 | 0.00 | 0.00 | 0.00 | 70 | 1011.3 |
| 20260905230830 | 84 | 84 | 5.2 | 11.3 | 0.00 | 0.00 | 0.00 | 70 | 1011.3 |
| 20260905230357 | 85 | 74 | 5.2 | 11.3 | 0.00 | 0.00 | 0.00 | 69 | 1011.4 |
| 20260905225844 | 85 | 73 | 5.2 | 10.4 | 0.00 | 0.00 | 0.00 | 69 | 1011.4 |
| 20260905225354 | 85 | 54 | 5.2 | 7.8 | 0.00 | 0.00 | 0.00 | 69 | 1011.4 |
| 20260905224821 | 86 | 78 | 1.7 | 10.4 | 0.00 | 0.00 | 0.00 | 69 | 1011.3 |
| 20260905224329 | 86 | 94 | 4.3 | 11.3 | 0.00 | 0.00 | 0.00 | 69 | 1011.4 |
| 20260905223830 | 86 | 73 | 5.2 | 11.3 | 0.00 | 0.00 | 0.00 | 69 | 1011.3 |
| 20260905223317 | 87 | 79 | 5.2 | 10.4 | 0.00 | 0.00 | 0.00 | 69 | 1011.3 |
| 20260905222846 | 87 | 92 | 5.2 | 9.6 | 0.00 | 0.00 | 0.00 | 69 | 1011.3 |
| 20260905222334 | 88 | 82 | 5.2 | 10.4 | 0.00 | 0.00 | 0.00 | 69 | 1011.3 |
| 20260905221845 | 88 | 32 | 5.2 | 10.4 | 0.00 | 0.00 | 0.00 | 69 | 1011.3 |
| 20260905220837 | 89 | 81 | 2.6 | 7.0 | 0.00 | 0.00 | 0.00 | 70 | 1011.3 |
| 20260905220346 | 89 | 55 | 2.6 | 4.3 | 0.00 | 0.00 | 0.00 | 70 | 1011.4 |
| 20260905215831 | 89 | 311 | 0.0 | 0.0 | 0.00 | 0.00 | 0.00 | 70 | 1011.2 |
| 20260905215317 | 89 | 311 | 0.0 | 0.0 | 0.00 | 0.00 | 0.00 | 70 | 1011.1 |
| 20260905214826 | 90 | 311 | 0.0 | 4.3 | 0.00 | 0.00 | 0.00 | 70 | 1011.1 |
| 20260905214333 | 90 | 311 | 1.7 | 7.8 | 0.00 | 0.00 | 0.00 | 70 | 1011.0 |
| 20260905213818 | 90 | 326 | 2.6 | 7.8 | 0.00 | 0.00 | 0.00 | 71 | 1011.1 |
| 20260905213327 | 90 | 300 | 2.6 | 3.5 | 0.00 | 0.00 | 0.00 | 71 | 1011.2 |
| 20260905212831 | 90 | 253 | 0.0 | 2.6 | 0.00 | 0.00 | 0.00 | 71 | 1011.2 |
| 20260905212317 | 90 | 253 | 0.9 | 3.5 | 0.00 | 0.00 | 0.00 | 71 | 1011.3 |
| 20260905211821 | 90 | 253 | 0.9 | 5.2 | 0.00 | 0.00 | 0.00 | 71 | 1011.5 |
| 20260905211352 | 90 | 270 | 0.9 | 5.2 | 0.00 | 0.00 | 0.00 | 71 | 1011.5 |
| 20260905210819 | 90 | 294 | 0.9 | 6.1 | 0.00 | 0.00 | 0.00 | 72 | 1011.5 |
| 20260905210324 | 90 | 249 | 1.7 | 8.7 | 0.00 | 0.00 | 0.00 | 72 | 1011.5 |
| 20260905205829 | 90 | 234 | 5.2 | 11.3 | 0.00 | 0.00 | 0.00 | 72 | 1011.5 |
| 20260905205328 | 90 | 244 | 3.5 | 11.3 | 0.00 | 0.00 | 0.00 | 72 | 1011.4 |
| 20260905204841 | 90 | 211 | 2.6 | 8.7 | 0.00 | 0.00 | 0.00 | 72 | 1011.6 |
| 20260905204327 | 91 | 255 | 5.2 | 10.4 | 0.00 | 0.00 | 0.00 | 72 | 1011.6 |
| 20260905203832 | 91 | 273 | 4.3 | 10.4 | 0.00 | 0.00 | 0.00 | 72 | 1011.7 |
| 20260905203320 | 91 | 274 | 3.5 | 10.4 | 0.00 | 0.00 | 0.00 | 73 | 1011.7 |
| 20260905202846 | 91 | 229 | 6.1 | 10.4 | 0.00 | 0.00 | 0.00 | 73 | 1011.8 |
| 20260905202356 | 91 | 231 | 4.3 | 8.7 | 0.00 | 0.00 | 0.00 | 73 | 1011.8 |
| 20260905201841 | 91 | 223 | 5.2 | 9.6 | 0.00 | 0.00 | 0.00 | 73 | 1011.8 |
| 20260905201329 | 91 | 205 | 3.5 | 9.6 | 0.00 | 0.00 | 0.00 | 73 | 1011.8 |
| 20260905200827 | 91 | 236 | 5.2 | 9.6 | 0.00 | 0.00 | 0.00 | 74 | 1011.8 |
| 20260905200335 | 91 | 227 | 3.5 | 7.8 | 0.00 | 0.00 | 0.00 | 74 | 1011.8 |
| 20260905195824 | 91 | 312 | 1.7 | 4.3 | 0.00 | 0.00 | 0.00 | 74 | 1011.9 |
| 20260905195326 | 91 | 315 | 1.7 | 4.3 | 0.00 | 0.00 | 0.00 | 75 | 1011.9 |
| 20260905194829 | 91 | 308 | 0.9 | 2.6 | 0.00 | 0.00 | 0.00 | 75 | 1011.9 |
| 20260905194336 | 91 | 308 | 0.9 | 2.6 | 0.00 | 0.00 | 0.00 | 75 | 1011.9 |
| 20260905193846 | 92 | 308 | 1.7 | 3.5 | 0.00 | 0.00 | 0.00 | 76 | 1012.1 |
| 20260905193328 | 92 | 308 | 2.6 | 3.5 | 0.00 | 0.00 | 0.00 | 76 | 1012.1 |
| 20260905192831 | 92 | 71 | 2.6 | 7.0 | 0.00 | 0.00 | 0.00 | 76 | 1012.1 |
| 20260905192403 | 92 | 74 | 3.5 | 7.0 | 0.00 | 0.00 | 0.00 | 77 | 1012.1 |
| 20260905191819 | 92 | 167 | 1.7 | 8.7 | 0.00 | 0.00 | 0.00 | 78 | 1012.1 |
| 20260905191351 | 92 | 180 | 3.5 | 8.7 | 0.00 | 0.00 | 0.00 | 78 | 1012.2 |
| 20260905190831 | 92 | 135 | 2.6 | 5.2 | 0.00 | 0.00 | 0.00 | 79 | 1012.3 |
| 20260905190337 | 91 | 142 | 3.5 | 4.3 | 0.00 | 0.00 | 0.00 | 79 | 1012.4 |
| 20260905185908 | 91 | 120 | 2.6 | 5.2 | 0.00 | 0.00 | 0.00 | 79 | 1012.5 |
| 20260905185345 | 91 | 170 | 1.7 | 7.0 | 0.00 | 0.00 | 0.00 | 80 | 1012.5 |
| 20260905184827 | 90 | 260 | 2.6 | 7.8 | 0.00 | 0.00 | 0.00 | 80 | 1012.5 |
| 20260905184338 | 90 | 200 | 2.6 | 7.8 | 0.00 | 0.00 | 0.00 | 80 | 1012.6 |
| 20260905183844 | 90 | 76 | 4.3 | 8.7 | 0.00 | 0.00 | 0.00 | 80 | 1012.7 |
| 20260905183327 | 90 | 78 | 3.5 | 8.7 | 0.00 | 0.00 | 0.00 | 80 | 1012.9 |
| 20260905182831 | 90 | 76 | 2.6 | 6.1 | 0.00 | 0.00 | 0.00 | 81 | 1013.0 |
| 20260905182332 | 90 | 107 | 1.7 | 7.0 | 0.00 | 0.00 | 0.00 | 82 | 1013.1 |
| 20260905181818 | 89 | 150 | 3.5 | 6.1 | 0.00 | 0.00 | 0.00 | 82 | 1013.2 |
| 20260905181321 | 89 | 174 | 2.6 | 4.3 | 0.00 | 0.00 | 0.00 | 82 | 1013.4 |
| 20260905180851 | 89 | 117 | 2.6 | 5.2 | 0.00 | 0.00 | 0.00 | 82 | 1013.5 |
| 20260905180337 | 89 | 118 | 0.9 | 5.2 | 0.00 | 0.00 | 0.00 | 83 | 1013.6 |
| 20260905175824 | 89 | 119 | 2.6 | 5.2 | 0.00 | 0.00 | 0.00 | 83 | 1013.7 |
| 20260905175327 | 89 | 144 | 1.7 | 6.1 | 0.00 | 0.00 | 0.00 | 83 | 1013.7 |
| 20260905174825 | 89 | 107 | 3.5 | 6.1 | 0.00 | 0.00 | 0.00 | 83 | 1013.8 |
| 20260905174328 | 89 | 199 | 2.6 | 6.1 | 0.00 | 0.00 | 0.00 | 83 | 1013.9 |
| 20260905173836 | 89 | 226 | 1.7 | 3.5 | 0.00 | 0.00 | 0.00 | 84 | 1013.9 |
| 20260905173349 | 89 | 229 | 2.6 | 3.5 | 0.00 | 0.00 | 0.00 | 84 | 1014.0 |
| 20260905172828 | 88 | 156 | 0.9 | 4.3 | 0.00 | 0.00 | 0.00 | 85 | 1014.0 |
| 20260905172328 | 88 | 88 | 2.6 | 5.2 | 0.00 | 0.00 | 0.00 | 85 | 1014.1 |
| 20260905171834 | 88 | 61 | 3.5 | 5.2 | 0.00 | 0.00 | 0.00 | 85 | 1014.2 |
| 20260905171319 | 87 | 74 | 4.3 | 6.1 | 0.00 | 0.00 | 0.00 | 85 | 1014.3 |
| 20260905170825 | 87 | 109 | 2.6 | 5.2 | 0.00 | 0.00 | 0.00 | 85 | 1014.3 |
| 20260905170332 | 87 | 90 | 2.6 | 5.2 | 0.00 | 0.00 | 0.00 | 85 | 1014.3 |
| 20260905165820 | 87 | 224 | 1.7 | 2.6 | 0.00 | 0.00 | 0.00 | 85 | 1014.4 |
| 20260905165325 | 87 | 230 | 0.0 | 1.7 | 0.00 | 0.00 | 0.00 | 85 | 1014.4 |
| 20260905164828 | 87 | 229 | 0.0 | 1.7 | 0.00 | 0.00 | 0.00 | 86 | 1014.3 |
| 20260905164339 | 87 | 229 | 0.9 | 2.6 | 0.00 | 0.00 | 0.00 | 86 | 1014.4 |
| 20260905163823 | 87 | 230 | 0.0 | 4.3 | 0.00 | 0.00 | 0.00 | 86 | 1014.4 |
| 20260905163330 | 87 | 229 | 2.6 | 6.1 | 0.00 | 0.00 | 0.00 | 86 | 1014.4 |
| 20260905162851 | 87 | 181 | 4.3 | 6.1 | 0.00 | 0.00 | 0.00 | 87 | 1014.3 |
| 20260905162404 | 87 | 141 | 2.6 | 4.3 | 0.00 | 0.00 | 0.00 | 87 | 1014.3 |
| 20260905161826 | 87 | 144 | 0.9 | 7.0 | 0.00 | 0.00 | 0.00 | 87 | 1014.3 |
| 20260905161328 | 87 | 134 | 2.6 | 7.0 | 0.00 | 0.00 | 0.00 | 87 | 1014.2 |
| 20260905160831 | 87 | 107 | 1.7 | 7.0 | 0.00 | 0.00 | 0.00 | 87 | 1014.2 |
| 20260905160337 | 87 | 95 | 4.3 | 6.1 | 0.00 | 0.00 | 0.00 | 87 | 1014.4 |
| 20260905155823 | 86 | 245 | 2.6 | 6.1 | 0.00 | 0.00 | 0.00 | 88 | 1014.5 |
| 20260905155354 | 86 | 183 | 1.7 | 4.3 | 0.00 | 0.01 | 0.00 | 88 | 1014.4 |
| 20260905154858 | 86 | 199 | 0.9 | 3.5 | 0.00 | 0.01 | 0.00 | 88 | 1014.4 |
| 20260905154320 | 86 | 221 | 1.7 | 8.7 | 0.00 | 0.01 | 0.00 | 88 | 1014.4 |
| 20260905153851 | 85 | 252 | 4.3 | 8.7 | 0.00 | 0.01 | 0.00 | 88 | 1014.3 |
| 20260905153333 | 85 | 234 | 0.9 | 7.0 | 0.00 | 0.01 | 0.00 | 88 | 1014.4 |
| 20260905152839 | 85 | 230 | 4.3 | 7.0 | 0.00 | 0.01 | 0.00 | 88 | 1014.4 |
| 20260905152323 | 85 | 252 | 2.6 | 8.7 | 0.00 | 0.01 | 0.00 | 88 | 1014.4 |
| 20260905151826 | 85 | 243 | 3.5 | 8.7 | 0.00 | 0.01 | 0.00 | 88 | 1014.3 |
| 20260905151330 | 85 | 193 | 2.6 | 6.1 | 0.00 | 0.01 | 0.00 | 88 | 1014.3 |
| 20260905150835 | 84 | 307 | 2.6 | 6.1 | 0.00 | 0.01 | 0.00 | 88 | 1014.2 |
| 20260905150347 | 84 | 286 | 0.9 | 4.3 | 0.00 | 0.01 | 0.00 | 88 | 1014.3 |
| 20260905145820 | 84 | 259 | 0.9 | 2.6 | 0.00 | 0.01 | 0.00 | 88 | 1014.4 |
| 20260905145331 | 84 | 261 | 0.9 | 6.1 | 0.00 | 0.01 | 0.00 | 88 | 1014.5 |
| 20260905144836 | 83 | 275 | 1.7 | 6.1 | 0.00 | 0.01 | 0.00 | 88 | 1014.5 |
| 20260905144321 | 83 | 276 | 0.9 | 3.5 | 0.00 | 0.01 | 0.00 | 88 | 1014.5 |
| 20260905143847 | 82 | 262 | 0.9 | 2.6 | 0.00 | 0.01 | 0.00 | 88 | 1014.4 |
| 20260905143328 | 82 | 263 | 1.7 | 2.6 | 0.00 | 0.01 | 0.00 | 87 | 1014.4 |
| 20260905142840 | 82 | 263 | 0.0 | 2.6 | 0.00 | 0.01 | 0.00 | 87 | 1014.5 |
| 20260905142341 | 81 | 246 | 0.0 | 0.0 | 0.00 | 0.01 | 0.00 | 87 | 1014.5 |
| 20260905141826 | 81 | 165 | 0.0 | 0.0 | 0.00 | 0.01 | 0.00 | 87 | 1014.5 |
| 20260905141325 | 81 | 141 | 0.0 | 0.0 | 0.00 | 0.01 | 0.00 | 87 | 1014.4 |
| 20260905140827 | 81 | 140 | 0.0 | 0.0 | 0.00 | 0.01 | 0.00 | 87 | 1014.5 |
| 20260905140333 | 80 | 140 | 0.0 | 0.0 | 0.00 | 0.01 | 0.00 | 87 | 1014.5 |
| 20260905135838 | 80 | 140 | 0.0 | 0.0 | 0.00 | 0.01 | 0.00 | 87 | 1014.5 |
| 20260905135319 | 80 | 150 | 0.0 | 0.0 | 0.00 | 0.01 | 0.00 | 87 | 1014.4 |
| 20260905134820 | 79 | 173 | 0.0 | 0.0 | 0.00 | 0.01 | 0.00 | 87 | 1014.4 |
| 20260905134353 | 79 | 173 | 0.0 | 0.0 | 0.00 | 0.01 | 0.00 | 87 | 1014.4 |
| 20260905133836 | 78 | 173 | 0.0 | 0.0 | 0.00 | 0.01 | 0.00 | 87 | 1014.4 |
| 20260905133321 | 78 | 174 | 0.0 | 0.0 | 0.00 | 0.01 | 0.00 | 86 | 1014.3 |
| 20260905132828 | 78 | 173 | 0.0 | 0.9 | 0.00 | 0.01 | 0.00 | 86 | 1014.3 |
| 20260905132329 | 77 | 173 | 0.0 | 0.9 | 0.00 | 0.01 | 0.00 | 86 | 1014.2 |
| 20260905131834 | 77 | 173 | 0.0 | 0.0 | 0.00 | 0.01 | 0.00 | 86 | 1014.2 |
| 20260905131318 | 76 | 173 | 0.0 | 2.6 | 0.00 | 0.01 | 0.00 | 86 | 1014.2 |
| 20260905130820 | 76 | 173 | 0.0 | 2.6 | 0.00 | 0.01 | 0.00 | 86 | 1014.2 |
| 20260905130331 | 76 | 174 | 1.7 | 2.6 | 0.00 | 0.01 | 0.00 | 86 | 1014.2 |
| 20260905125818 | 75 | 174 | 1.7 | 2.6 | 0.00 | 0.01 | 0.00 | 86 | 1014.2 |
| 20260905125318 | 75 | 175 | 0.9 | 2.6 | 0.00 | 0.01 | 0.00 | 86 | 1014.0 |
| 20260905124823 | 75 | 175 | 1.7 | 3.5 | 0.00 | 0.01 | 0.00 | 86 | 1013.9 |
| 20260905124349 | 75 | 180 | 1.7 | 3.5 | 0.00 | 0.01 | 0.00 | 85 | 1013.8 |
| 20260905123844 | 75 | 194 | 1.7 | 2.6 | 0.00 | 0.01 | 0.00 | 85 | 1013.7 |
| 20260905123317 | 75 | 197 | 0.9 | 1.7 | 0.00 | 0.01 | 0.00 | 85 | 1013.7 |
| 20260905122831 | 75 | 197 | 0.9 | 2.6 | 0.00 | 0.01 | 0.00 | 85 | 1013.6 |
| 20260905122353 | 75 | 197 | 1.7 | 2.6 | 0.00 | 0.01 | 0.00 | 85 | 1013.7 |
| 20260905121818 | 75 | 197 | 0.0 | 0.0 | 0.00 | 0.01 | 0.00 | 85 | 1013.5 |
| 20260905121350 | 75 | 197 | 0.0 | 0.0 | 0.00 | 0.01 | 0.00 | 85 | 1013.5 |
| 20260905120837 | 75 | 197 | 0.0 | 0.0 | 0.00 | 0.01 | 0.00 | 85 | 1013.5 |
| 20260905120325 | 75 | 197 | 0.0 | 0.0 | 0.00 | 0.01 | 0.00 | 85 | 1013.4 |